Zurück zum Katalog

STARLINK-5821

AktivKommunikationVLEO
NORAD 57069·PAYLOAD·🇺🇸 United States

Gestartet Jun 22, 2023 von Vandenberg Space Force Base

Loading…

Nächste Überflüge (nächste 24 Stunden)

TLE

AktuellSource: CelesTrak SupGP

Epoche: Sep 15, 2026, 02:48 UTC

1 57069C 23088X   26258.11715278  .00033136  00000+0  12001-2 0  2582
2 57069  43.0023 106.7534 0001445 273.6796 171.5887 15.27563421    15

Verfolge STARLINK-5821 in Echtzeit mit AllMySat

Download on the App Store